[[{"header":{"parameterUnit":"m.s-1","parameterCategory":1,"la1":30.2992,"la2":30.254,"lo1":-89.0895,"lo2":-89.0443,"dy":0.0025,"dx":0.0025,"nx":19,"ny":19,"refTime":"2026-04-09T21:00:00:Z","depth":0,"parameterNumber":2,"parameterNumberName":"U-component_of_WINDS"},"data":[0,0,0,-2.8602,-2.8604,-2.8693,-2.8693,-2.8807,-2.8808,0,0,0,0,0,0,0,0,0,0,0,-2.8575,-2.8575,-2.8602,-2.8604,-2.8693,-2.8693,-2.8807,-2.8808,0,0,0,0,0,0,0,0,0,0,0,-2.8574,-2.8575,-2.8576,-2.8604,-2.8693,-2.8693,-2.8807,-2.874,0,0,0,0,0,0,0,0,0,0,-2.8653,-2.8627,-2.8575,-2.8576,-2.8605,-2.8692,-2.8693,-2.8736,-2.8744,-2.8767,0,-2.8786,0,-2.8799,-2.8816,-2.8816,0,0,0,-2.8604,-2.8621,-2.8646,-2.8576,-2.8605,-2.8692,-2.8653,-2.8741,-2.8749,-2.8777,-2.8788,-2.8792,-2.8801,-2.8817,-2.8817,-2.8949,-2.8949,0,0,-2.8599,-2.859,-2.864,-2.8651,-2.8637,-2.865,-2.8655,-2.8746,-2.8757,-2.8788,-2.8795,-2.8803,-2.8817,-2.8818,-2.8948,-2.8949,0,0,0,-2.8585,-2.8587,-2.8609,-2.8646,-2.8662,-2.8652,-2.8659,-2.8753,-2.8762,-2.8796,-2.8804,-2.8818,-2.8819,-2.8947,-2.8948,-2.8971,0,0,0,-2.8582,-2.8578,-2.8607,-2.8602,-2.8661,-2.8709,-2.8665,-2.8755,-2.8766,-2.8804,-2.8818,-2.882,-2.8947,-2.8948,-2.8969,-2.8984,0,0,0,-2.8569,-2.8577,-2.8589,-2.8602,-2.864,-2.8708,-2.8721,-2.8758,-2.8771,-2.8816,-2.8821,-2.8946,-2.8948,-2.8967,-2.8981,-2.902,0,0,0,-2.8553,-2.8606,-2.8589,-2.8652,-2.8639,-2.872,-2.872,-2.8781,-2.8822,-2.8819,-2.8947,-2.8948,-2.8967,-2.8979,-2.9017,-2.9053,-2.9065,0,0,-2.8615,-2.8613,-2.8651,-2.8639,-2.8721,-2.8707,-2.8793,-2.8839,-2.8851,-2.8916,-2.8919,-2.897,-2.8981,-2.9019,-2.9133,-2.9143,0,0,0,-2.8668,-2.8696,-2.8719,-2.8759,-2.8796,-2.883,-2.8864,-2.8881,-2.8937,-2.8882,-2.8992,-2.8999,-2.9022,-2.9039,-2.9048,-2.907,-2.8955,-2.8954,-2.8954,-2.8744,-2.8758,-2.8824,-2.8849,-2.8887,-2.8923,-2.8957,-2.8987,-2.8987,-2.9013,-2.9034,-2.9101,-2.9121,-2.9128,-2.9151,-2.905,-2.905,-2.905,-2.905,-2.8841,-2.8884,-2.8886,-2.895,-2.8965,-2.9019,-2.9057,-2.9056,-2.911,-2.9086,-2.9107,-2.9083,-2.9138,-2.9159,-2.9052,-2.9052,-2.9051,-2.9051,-2.9051,-2.8896,-2.8919,-2.894,-2.9001,-2.9047,-2.907,-2.9123,-2.9133,-2.9143,-2.9163,-2.9189,-2.9189,-2.9194,-2.9174,-2.9174,-2.9175,-2.9175,-2.9175,-2.9175,-2.8946,-2.8969,-2.9013,-2.9058,-2.9087,-2.9126,-2.9164,-2.9192,-2.9227,-2.9231,-2.9231,-2.9233,-2.9139,-2.9118,-2.9179,-2.9178,-2.9178,-2.9178,-2.9177,-2.9046,-2.9025,-2.9093,-2.9122,-2.9178,-2.9225,-2.9237,-2.9296,-2.9321,-2.9348,-2.9344,-2.9272,-2.9271,-2.9265,-2.9248,-2.9338,-2.9338,-2.9338,-2.9338,-2.9096,-2.9095,-2.9169,-2.9216,-2.9262,-2.928,-2.936,-2.939,-2.9418,-2.9436,-2.9423,-2.94,-2.9392,-2.9396,-2.9387,-2.9371,-2.9491,-2.9491,-2.9491,-2.916,-2.9165,-2.923,-2.9258,-2.9303,-2.9343,-2.9418,-2.9473,-2.95,-2.9498,-2.945,-2.9444,-2.9407,-2.9393,-2.9392,-2.9377,-2.9349,0,0]},{"header":{"parameterUnit":"m.s-1","parameterCategory":1,"la1":30.2992,"la2":30.254,"lo1":-89.0895,"lo2":-89.0443,"dy":0.0025,"dx":0.0025,"nx":19,"ny":19,"refTime":"2026-04-09T21:00:00:Z","depth":0,"parameterNumber":3,"parameterNumberName":"V-component_of_WINDS"},"data":[0,0,0,-2.1136,-2.1137,-2.1164,-2.1164,-2.1209,-2.1209,0,0,0,0,0,0,0,0,0,0,0,-2.1135,-2.1136,-2.1136,-2.1137,-2.1164,-2.1164,-2.1209,-2.1209,0,0,0,0,0,0,0,0,0,0,0,-2.1135,-2.1136,-2.1137,-2.1137,-2.1164,-2.1164,-2.1209,-2.1184,0,0,0,0,0,0,0,0,0,0,-2.1156,-2.1163,-2.1136,-2.1137,-2.1137,-2.1164,-2.1164,-2.1183,-2.1186,-2.1202,0,-2.1218,0,-2.1215,-2.1213,-2.1213,0,0,0,-2.1131,-2.1161,-2.1162,-2.1137,-2.1138,-2.1164,-2.115,-2.1185,-2.1188,-2.1206,-2.1219,-2.122,-2.1216,-2.1214,-2.1214,-2.1328,-2.1328,0,0,-2.113,-2.1144,-2.1159,-2.1164,-2.1161,-2.1149,-2.1151,-2.1186,-2.1201,-2.1219,-2.1221,-2.1216,-2.1214,-2.1214,-2.1327,-2.1328,0,0,0,-2.1129,-2.1143,-2.1143,-2.1163,-2.1167,-2.115,-2.1152,-2.12,-2.1198,-2.1222,-2.1217,-2.1214,-2.1215,-2.1326,-2.1327,-2.1382,0,0,0,-2.1128,-2.1143,-2.1142,-2.1151,-2.1166,-2.1184,-2.1165,-2.1196,-2.12,-2.1217,-2.1214,-2.1216,-2.1325,-2.1327,-2.1379,-2.1406,0,0,0,-2.1131,-2.1143,-2.115,-2.1152,-2.1164,-2.1183,-2.1183,-2.1196,-2.1197,-2.1213,-2.1216,-2.1324,-2.1326,-2.1376,-2.1401,-2.1442,0,0,0,-2.1138,-2.1196,-2.1151,-2.1214,-2.1164,-2.1217,-2.1183,-2.1221,-2.1241,-2.1215,-2.1325,-2.1327,-2.1375,-2.1398,-2.1438,-2.148,-2.1498,0,0,-2.1219,-2.1207,-2.1243,-2.1203,-2.1267,-2.1211,-2.1284,-2.1288,-2.1275,-2.1311,-2.1313,-2.138,-2.14,-2.1441,-2.1592,-2.1607,0,0,0,-2.1273,-2.13,-2.1314,-2.1335,-2.1341,-2.1348,-2.134,-2.1342,-2.1372,-2.1297,-2.1404,-2.1416,-2.1439,-2.1458,-2.1471,-2.1491,-2.1336,-2.1336,-2.1336,-2.1409,-2.1392,-2.1451,-2.1438,-2.1458,-2.1451,-2.1466,-2.1467,-2.1442,-2.1468,-2.1479,-2.1573,-2.1596,-2.1605,-2.1626,-2.1498,-2.1498,-2.1498,-2.1498,-2.1528,-2.1563,-2.153,-2.1577,-2.1558,-2.1596,-2.1591,-2.1572,-2.1605,-2.1562,-2.1582,-2.1538,-2.1621,-2.1639,-2.1502,-2.1501,-2.1501,-2.1501,-2.15,-2.1616,-2.163,-2.1632,-2.1663,-2.1688,-2.1671,-2.1706,-2.1686,-2.1668,-2.1688,-2.1698,-2.1697,-2.1695,-2.1694,-2.1694,-2.1695,-2.1695,-2.1695,-2.1695,-2.1707,-2.1708,-2.174,-2.1752,-2.1765,-2.1778,-2.1772,-2.1783,-2.1791,-2.1774,-2.1774,-2.1748,-2.1632,-2.1605,-2.17,-2.1699,-2.1699,-2.1698,-2.1698,-2.1836,-2.1805,-2.1854,-2.1866,-2.1881,-2.1908,-2.1883,-2.1908,-2.1914,-2.1932,-2.1902,-2.1819,-2.1804,-2.1794,-2.1771,-2.1904,-2.1904,-2.1904,-2.1904,-2.1912,-2.1903,-2.195,-2.1972,-2.199,-2.1974,-2.2031,-2.2027,-2.2018,-2.2021,-2.1998,-2.1966,-2.1956,-2.1947,-2.1934,-2.1912,-2.2078,-2.2078,-2.2078,-2.1992,-2.1984,-2.2036,-2.2028,-2.2038,-2.2048,-2.2101,-2.2127,-2.2109,-2.2085,-2.2023,-2.2016,-2.1963,-2.1946,-2.1922,-2.1902,-2.1862,0,0]}]]